Find Himawari-9

NORAD ID: 41836 Int'l Des: 2016-064 Owner: JMA Country: J operational
HEOCIRCULARGSOGEO

实时位置

正在加载3D地球...

关于 Himawari-9

正在加载描述...

即将过境

Passes for default location (London). Set your location on the main map for personalized predictions.

高度历史

Loading altitude history...

两行轨道根数

1 41836U 16064A 26105.89793332 -.00000268 00000-0 00000-0 0 9994
2 41836 0.0354 127.1720 0001060 277.1810 263.7360 1.00272370 34588
Epoch: Apr 15, 2026 • Age: 8 hours

当前状态

高度 35782.0 km
速度 3.08 km/s
星下点 -0.03°S, 140.78°E
发射日期 Nov 2, 2016
运行时间 9.4 years
类型 weather

技术详情

分类 Payload
质量 3500.00 kg
干质量 1300.00 kg
总质量 3500.00 kg
长度 8.00 m
直径 4.00 m
跨度 30.00 m
形状 Box +panel+boom
制造商 MELCO
平台类型 DS-2000
阶段状态 In Orbit
所有者/国家 JMA/J

Most Searched